Regional Weather Roundup
Issued by NWS

Home | Current Version | Previous Version | Graphics & Text | Print | Product List | Glossary On
Versions: 1 2 3 4 5 6 7 8 9 10 11 12 13 14 15 16 17 18 19 20 21 22 23 24 25 26 27 28 29 30 31 32 33 34 35 36 37 38 39 40 41 42 43 44 45 46 47 48 49 50
346
ASUS43 KBIS 201802
RWRND

NORTH DAKOTA REGIONAL WEATHER ROUNDUP
NATIONAL WEATHER SERVICE BISMARCK ND
1200 PM CST TUE FEB 20 2018

NOTE: "FAIR" INDICATES FEW OR NO CLOUDS BELOW 12,000 FEET WITH NO
SIGNIFICANT WEATHER AND/OR OBSTRUCTIONS TO VISIBILITY.


NDZ001>003-009>011-017-201900-
NORTHWEST NORTH DAKOTA

CITY           SKY/WX    TMP DP  RH WIND       PRES   REMARKS
WILLISTON      FAIR       2  -5  72 W21       30.10F WCI -20
6HR MIN TEMP:  -1; 6HR MAX TEMP:   2; 6HR PCP: TRACE;

MINOT          FAIR       6  -3  66 W13       30.07F WCI -10
MINOT AFB      FLURRIES   7  -2  66 W12       30.06F WCI  -9
$$

NDZ018>021-031>035-040>046-201900-
SOUTHWEST NORTH DAKOTA

CITY           SKY/WX    TMP DP  RH WIND       PRES   REMARKS
BISMARCK       FAIR      10   0  63 W13       30.15R WCI  -5
6HR MIN TEMP:   4; 6HR MAX TEMP:  10; 6HR PCP:  0.02;

DICKINSON      FAIR       3  -4  72 W14       30.05S WCI -15
GARRISON         N/A      5  -3  69 W14       30.09S WCI -12
6HR MIN TEMP:  -4; 6HR MAX TEMP:   5;

HETTINGER ARPT FAIR      -1  -7  75 W13       30.10S WCI -19
$$

NDZ004>008-012>016-024-026-027-054-201900-
NORTHEAST NORTH DAKOTA

CITY           SKY/WX    TMP DP  RH WIND       PRES   REMARKS
GRAND FORKS    LGT SNOW   9   3  77 NW15      30.10R WCI  -8
GRND FRKS AFB  FLURRIES   9   2  72 N12       30.10S WCI  -6
DEVILS LAKE    FAIR       5  -1  76 W14       30.08F WCI -12
$$

NDZ022-023-025-028>030-036>039-047>053-201900-
SOUTHEAST NORTH DAKOTA

CITY           SKY/WX    TMP DP  RH WIND       PRES   REMARKS
FARGO          MIX PCPN   9   3  77 NW17      30.11R WCI  -9
6HR MIN TEMP:   5; 6HR MAX TEMP:   9; 6HR PCP:  0.01;

JAMESTOWN      FAIR       8   1  73 NW18      30.09S WCI -11
$$





USA.gov is the U.S. government's official web portal to all federal, state and local government web resources and services.